FW8580 Weather Reports


time (UTC)temp
C
wind
direction
speed
KPH
gust
KPH
rain 1hr
cm
rain 24hr
cm
rain mn
cm
humidity
%
barometer
mb
20260505123008 13 26 0.0 1.6 0.00 0.00 0.00 62 1015.8
20260505121459 13 41 0.0 0.0 0.00 0.00 0.00 64 1015.8
20260505115959 13 49 0.0 1.6 0.00 0.00 0.00 64 1015.7
20260505114500 12 33 0.0 1.6 0.00 0.00 0.00 65 1015.8
20260505113000 12 251 0.0 1.6 0.00 0.00 0.00 65 1015.6
20260505111500 12 269 0.0 1.6 0.00 0.00 0.00 65 1015.5
20260505101500 12 84 0.0 3.2 0.00 0.00 0.00 63 1015.0
20260505100005 12 94 0.0 3.2 0.00 0.00 0.00 63 1014.6
20260505094459 12 48 0.0 4.8 0.00 0.00 0.00 62 1014.5
20260505093004 12 52 0.0 3.2 0.00 0.00 0.00 62 1014.6
20260505090001 13 20 1.6 6.4 0.00 0.00 0.00 61 1014.5
20260505084508 13 245 1.6 6.4 0.00 0.00 0.00 60 1014.3
20260505082958 13 123 1.6 8.0 0.00 0.00 0.00 59 1014.2
20260505081457 13 28 0.0 8.0 0.00 0.00 0.00 59 1013.9
20260505080007 13 321 1.6 8.0 0.00 0.00 0.00 58 1014.1
20260505073002 13 79 1.6 8.0 0.00 0.00 0.00 57 1013.8
20260505071458 13 13 3.2 8.0 0.00 0.00 0.00 56 1013.7
20260505070002 13 343 3.2 11.3 0.00 0.00 0.00 56 1013.6
20260505064457 13 186 1.6 9.7 0.00 0.00 0.00 56 1013.7
20260505062957 13 272 1.6 6.4 0.00 0.00 0.00 56 1013.7
20260505061457 14 231 3.2 8.0 0.00 0.00 0.00 55 1013.8
20260505060000 14 309 1.6 6.4 0.00 0.00 0.00 55 1013.8
20260505054457 14 1 1.6 8.0 0.00 0.00 0.00 54 1013.8
20260505053008 14 80 1.6 6.4 0.00 0.00 0.00 53 1013.9
20260505051505 14 89 1.6 8.0 0.00 0.00 0.00 53 1013.9
20260505041457 15 267 1.6 9.7 0.00 0.00 0.00 50 1013.8
20260505035959 15 83 1.6 9.7 0.00 0.00 0.00 50 1013.9
20260505034458 15 345 1.6 11.3 0.00 0.00 0.00 51 1013.8
20260505033000 15 119 1.6 9.7 0.00 0.00 0.00 52 1014.1
20260505031501 15 293 3.2 9.7 0.00 0.00 0.00 52 1013.9
20260505023001 15 360 1.6 8.0 0.00 0.00 0.00 54 1014.3
20260505021459 15 333 1.6 9.7 0.00 0.00 0.00 55 1014.3
20260505020002 15 44 1.6 9.7 0.00 0.00 0.00 56 1014.5
20260505014458 15 44 0.0 6.4 0.00 0.00 0.00 57 1014.5
20260505013001 16 250 1.6 4.8 0.00 0.00 0.00 57 1014.4
20260505011459 16 122 0.0 4.8 0.00 0.00 0.00 57 1014.3
20260505005959 16 162 0.0 6.4 0.00 0.00 0.00 57 1014.1
20260505003002 16 233 0.0 4.8 0.00 0.00 0.00 57 1013.7
20260505000003 18 352 0.0 1.6 0.00 0.00 0.00 54 1013.7
20260504234502 18 18 0.0 3.2 0.00 0.00 0.00 49 1013.7
20260504233007 19 235 0.0 6.4 0.00 0.00 0.00 48 1013.6
20260504231458 19 248 0.0 4.8 0.00 0.00 0.00 47 1013.6
20260504230009 19 193 0.0 4.8 0.00 0.00 0.00 46 1013.5
20260504224458 20 33 0.0 6.4 0.00 0.00 0.00 45 1013.7
20260504223005 20 23 0.0 3.2 0.00 0.00 0.00 45 1013.6
20260504220000 21 29 0.0 11.3 0.00 0.00 0.00 43 1013.8
20260504213007 21 225 0.0 3.2 0.00 0.00 0.00 44 1014.0
20260504210003 21 43 0.0 3.2 0.00 0.00 0.00 45 1013.7
20260504204501 20 274 0.0 1.6 0.00 0.00 0.00 49 1013.8
20260504203002 19 34 0.0 3.2 0.00 0.00 0.00 50 1013.8
20260504201500 19 253 0.0 4.8 0.00 0.00 0.00 50 1013.9
20260504200001 20 231 0.0 3.2 0.00 0.00 0.00 48 1014.0
20260504194459 20 255 0.0 3.2 0.00 0.00 0.00 51 1014.2
20260504193002 20 345 0.0 4.8 0.00 0.00 0.00 52 1014.5
20260504191503 19 28 0.0 3.2 0.00 0.00 0.00 50 1014.5
20260504190003 18 90 0.0 1.6 0.00 0.00 0.00 51 1014.6
20260504184501 18 10 0.0 3.2 0.00 0.00 0.00 53 1014.6
20260504183004 17 90 0.0 8.0 0.00 0.00 0.00 55 1014.9
20260504181501 17 335 0.0 1.6 0.00 0.00 0.00 53 1015.4
20260504180005 17 13 0.0 1.6 0.00 0.00 0.00 54 1015.3
20260504174503 17 264 0.0 4.8 0.00 0.00 0.00 50 1015.6
20260504173003 18 213 0.0 6.4 0.00 0.00 0.00 48 1015.5
20260504171500 19 41 0.0 4.8 0.00 0.00 0.00 48 1015.4